User: anonymous   Login
Location: Oshawa
(43.9000°N, 78.8670°W)
Time: 09:34:23
(UTC-04:00)
Language:

Iridium 54 - Orbit

View from above orbital plane
View from above orbital plane
View from above satellite
View from above satellite

Ground track
Ground track

The orbit data is extracted from the following two-line orbital elements,

1 25171U 98010C   14303.44513821  .00000692  00000-0  23995-3 0  9733
2 25171 086.4004 031.9628 0002290 109.3276 250.8168 14.34218221874221
Epoch (UTC): 30 October 2014 10:40:59
Eccentricity: 0.0002290
inclination: 86.4004°
perigee height: 776 km
apogee height: 779 km
right ascension of ascending node: 31.9628°
argument of perigee: 109.3276°
revolutions per day: 14.34218221
mean anomaly at epoch: 250.8168°
orbit number at epoch: 87422

The dashed part of the orbit path shows where the satellite is in the earth's shadow,  

DLR